TimeCDT,TemperatureF,Dew PointF,Humidity,Sea Level PressureIn,VisibilityMPH,Wind Direction,Wind SpeedMPH,Gust SpeedMPH,PrecipitationIn,Events,Conditions,WindDirDegrees,DateUTC
12:52 AM,78.1,73.9,87,30.00,10.0,ESE,5.8,-,N/A,,Clear,120,2013-08-29 05:52:00
1:52 AM,77.0,73.9,90,30.01,10.0,Calm,Calm,-,N/A,,Clear,0,2013-08-29 06:52:00
2:52 AM,75.9,73.0,91,30.01,10.0,East,4.6,-,N/A,,Clear,80,2013-08-29 07:52:00
3:52 AM,75.9,73.0,91,30.01,10.0,East,4.6,-,N/A,,Clear,80,2013-08-29 08:52:00
4:52 AM,75.0,73.0,94,30.01,10.0,East,4.6,-,N/A,,Partly Cloudy,90,2013-08-29 09:52:00
5:44 AM,75.2,73.4,94,30.03,10.0,ESE,3.5,-,N/A,,Mostly Cloudy,120,2013-08-29 10:44:00
5:52 AM,73.9,73.0,97,30.02,10.0,ESE,3.5,-,N/A,,Mostly Cloudy,120,2013-08-29 10:52:00
6:19 AM,73.4,71.6,94,30.05,10.0,SE,3.5,-,N/A,,Scattered Clouds,130,2013-08-29 11:19:00
6:52 AM,73.9,72.0,93,30.04,10.0,ESE,3.5,-,N/A,,Overcast,120,2013-08-29 11:52:00
8:52 AM,78.1,72.0,81,30.05,10.0,SE,4.6,-,N/A,,Mostly Cloudy,130,2013-08-29 13:52:00
9:52 AM,81.0,73.0,77,30.05,10.0,South,4.6,-,N/A,,Clear,170,2013-08-29 14:52:00
10:52 AM,84.9,73.0,67,30.05,10.0,Calm,Calm,-,N/A,,Clear,0,2013-08-29 15:52:00
11:52 AM,89.1,73.9,61,30.04,10.0,Variable,3.5,-,N/A,,Clear,0,2013-08-29 16:52:00
12:52 PM,89.1,73.0,59,30.03,10.0,Variable,4.6,-,N/A,,Clear,0,2013-08-29 17:52:00
1:52 PM,91.0,72.0,53,30.01,10.0,East,9.2,-,N/A,,Clear,100,2013-08-29 18:52:00
2:52 PM,93.0,72.0,50,29.99,10.0,East,6.9,-,N/A,,Clear,80,2013-08-29 19:52:00
3:52 PM,93.0,71.1,49,29.97,10.0,SE,10.4,-,N/A,,Clear,140,2013-08-29 20:52:00
4:52 PM,93.0,71.1,49,29.96,10.0,SSE,8.1,-,N/A,,Clear,150,2013-08-29 21:52:00
5:52 PM,91.0,72.0,53,29.95,10.0,SSE,8.1,-,N/A,,Clear,160,2013-08-29 22:52:00
6:52 PM,88.0,73.9,63,29.95,10.0,SE,8.1,-,N/A,,Clear,140,2013-08-29 23:52:00
7:52 PM,84.9,75.0,72,29.95,10.0,SE,6.9,-,N/A,,Clear,130,2013-08-30 00:52:00
8:52 PM,82.0,75.0,79,29.95,10.0,SE,6.9,-,N/A,,Clear,140,2013-08-30 01:52:00
9:52 PM,80.1,75.9,87,29.95,10.0,SE,5.8,-,N/A,,Clear,140,2013-08-30 02:52:00
10:52 PM,78.1,75.9,93,29.94,10.0,SE,4.6,-,N/A,,Clear,140,2013-08-30 03:52:00
11:52 PM,78.1,75.0,90,29.95,10.0,SE,4.6,-,N/A,,Clear,130,2013-08-30 04:52:00